Погода в Донском

Россия / Липецкая область     52°36′56″N   38°58′36″E
темп.,
°C
ветер,
м/с
пор.,
м/с
влажн.,
%
обл.,
%
осадки,
мм/ч
давл.,
гПа
погр.,
м
18 мая, вт
вт1800:00+18вюв515685 0.0 1008323
03:00+15вюв49725 0.0 1008145
06:00+14вюв4107775 0.0 1008205
09:00+21юв610555 0.0 1008436
12:00+25вюв7104310 0.0 1007956
15:00+24юв61057100 0.0 10061111
18:00+22ююв5106298 0.0 1006522
21:00+17юз4885100 0.0 1007294
19 мая, ср
ср1900:00+14ююв1192100 0.1 100716
03:00+15вюв4788100 0.1 1008185
06:00+15юв498899 0.2 1007387
09:00+18ююв34755 0.4 1007594
12:00+22ююв345870 0.1 10061713
15:00+21ююз346387 0.1 1006784
18:00+20ююв5867100 0.3 1006374
21:00+15ю3793100 0.6 1007241
20 мая, чт
чт2000:00+14ю359523 0.0 1007258
03:00+13юв4893100 0.0 1008370
06:00+13ююв479517 0.2 1008301
09:00+16ююв677977 0.3 1008888
12:00+17ююв676839 1.3 10081223
15:00+18ююз566495 2.2 10081395
18:00+17ююз587693 0.6 1008946
21:00+13ююз499333 1.3 1010256
21 мая, пт
пт2100:00+11ююз4109692 0.0 1012291
03:00+11юз4109680 0.0 1013374
06:00+11зюз4990100 0.0 1015458
09:00+10зюз2586100 0.4 1017272
12:00+11юз2484100 0.6 1018268
15:00+16зюз3472100 0.6 1018652
18:00+16ссз2176100 0.1 1018318
21:00+13св3585100 0.1 101890
22 мая, сб
сб2200:00+13св4989100 0.4 1018224
03:00+12всв51294100 0.9 1017300
06:00+13в6129592 0.1 1016268
09:00+18вюв4777100 0.1 1015460
12:00+23ююв795395 0.0 10141243
15:00+24ю695442 0.0 10131566
18:00+24ююз366629 0.0 1014379
21:00+19ююв228279 0.0 101411